Location: Camaret
(48.2753°N, 4.5961°W)
Time: 01:20:31
(UTC+00:00)

Cosmos 1400 Rocket - Pass Details

Date: 29 October 2020
Orbit: 521 x 568 km, 81.2° (Epoch: 26 November)

Event Time Altitude Azimuth Distance (km) Brightness Sun altitude
Rises 18:42:32 0° 206° (SSW) 2,751 6.8 -16.9°
Reaches altitude 10° 18:44:47 10° 213° (SSW) 1,856 6.0 -17.3°
Maximum altitude 18:48:43 45° 286° (WNW) 778 4.0 -18.0°
Drops below altitude 10° 18:52:39 10° 360° (N) 1,849 5.5 -18.6°
Sets 18:54:54 0° 7° (N) 2,740 6.3 -19.0°
